TimeCDT,TemperatureF,Dew PointF,Humidity,Sea Level PressureIn,VisibilityMPH,Wind Direction,Wind SpeedMPH,Gust SpeedMPH,PrecipitationIn,Events,Conditions,WindDirDegrees,DateUTC
12:15 AM,65.8,63.5,92,29.81,10.0,SE,10.4,-,0.02,Rain,Rain,130,2013-07-23 05:15:00
12:35 AM,67.1,62.2,84,29.76,10.0,SE,10.4,-,0.04,Rain,Light Rain,130,2013-07-23 05:35:00
12:55 AM,66.6,62.2,86,29.70,10.0,South,10.4,-,0.04,,Scattered Clouds,170,2013-07-23 05:55:00
1:15 AM,67.3,63.0,86,29.77,10.0,NW,11.5,-,N/A,,Clear,320,2013-07-23 06:15:00
1:35 AM,66.6,62.6,87,29.78,10.0,NNW,8.1,-,N/A,,Clear,340,2013-07-23 06:35:00
1:55 AM,66.2,62.6,88,29.77,10.0,West,4.6,-,N/A,,Clear,280,2013-07-23 06:55:00
2:15 AM,65.8,62.8,90,29.75,10.0,Calm,Calm,-,N/A,,Clear,0,2013-07-23 07:15:00
2:35 AM,64.4,62.1,92,29.75,10.0,SSW,4.6,-,N/A,,Clear,200,2013-07-23 07:35:00
2:55 AM,63.9,61.9,93,29.74,10.0,Calm,Calm,-,N/A,,Clear,0,2013-07-23 07:55:00
3:15 AM,63.0,61.2,94,29.74,10.0,Calm,Calm,-,N/A,,Clear,0,2013-07-23 08:15:00
3:35 AM,63.5,61.0,91,29.75,10.0,Calm,Calm,-,N/A,,Clear,0,2013-07-23 08:35:00
3:55 AM,63.0,61.0,93,29.76,10.0,Calm,Calm,-,N/A,,Clear,0,2013-07-23 08:55:00
4:15 AM,63.1,61.3,94,29.76,10.0,WSW,3.5,-,N/A,,Clear,250,2013-07-23 09:15:00
4:35 AM,62.8,61.0,94,29.77,10.0,Calm,Calm,-,N/A,,Clear,0,2013-07-23 09:35:00
4:55 AM,62.8,61.2,94,29.78,10.0,Calm,Calm,-,N/A,,Clear,0,2013-07-23 09:55:00
5:15 AM,63.1,61.5,94,29.79,10.0,Calm,Calm,-,N/A,,Clear,0,2013-07-23 10:15:00
5:35 AM,62.8,61.2,94,29.79,7.0,Calm,Calm,-,N/A,,Clear,0,2013-07-23 10:35:00
5:55 AM,63.0,61.5,95,29.79,10.0,WNW,4.6,-,N/A,,Clear,290,2013-07-23 10:55:00
6:15 AM,63.5,61.2,92,29.80,10.0,West,3.5,-,N/A,,Clear,280,2013-07-23 11:15:00
6:55 AM,64.6,61.9,91,29.79,10.0,West,5.8,-,N/A,,Clear,280,2013-07-23 11:55:00
7:15 AM,65.3,62.4,90,29.79,10.0,West,5.8,-,N/A,,Clear,280,2013-07-23 12:15:00
7:35 AM,66.2,62.8,89,29.81,10.0,WNW,8.1,-,N/A,,Scattered Clouds,300,2013-07-23 12:35:00
7:55 AM,67.1,63.5,88,29.81,10.0,NNW,9.2,-,N/A,,Overcast,340,2013-07-23 12:55:00
8:15 AM,67.5,63.5,87,29.82,10.0,NNW,8.1,16.1,N/A,,Overcast,340,2013-07-23 13:15:00
8:35 AM,68.5,63.9,85,29.83,10.0,North,11.5,-,N/A,,Mostly Cloudy,360,2013-07-23 13:35:00
8:55 AM,70.3,63.3,78,29.83,10.0,North,10.4,-,N/A,,Mostly Cloudy,350,2013-07-23 13:55:00
9:15 AM,70.7,62.2,75,29.83,10.0,North,10.4,-,N/A,,Mostly Cloudy,360,2013-07-23 14:15:00
9:35 AM,71.1,61.9,73,29.84,10.0,North,9.2,-,N/A,,Overcast,10,2013-07-23 14:35:00
9:55 AM,72.9,61.7,68,29.84,10.0,North,9.2,-,N/A,,Mostly Cloudy,360,2013-07-23 14:55:00
10:15 AM,73.0,60.6,65,29.85,10.0,North,13.8,18.4,N/A,,Mostly Cloudy,360,2013-07-23 15:15:00
10:35 AM,73.6,61.7,66,29.87,10.0,North,12.7,-,N/A,,Scattered Clouds,350,2013-07-23 15:35:00
10:55 AM,73.6,60.8,64,29.87,10.0,North,9.2,-,N/A,,Scattered Clouds,360,2013-07-23 15:55:00
11:15 AM,74.8,61.7,64,29.87,10.0,North,12.7,-,N/A,,Scattered Clouds,350,2013-07-23 16:15:00
11:35 AM,74.1,62.4,67,29.87,10.0,NNW,11.5,-,N/A,,Mostly Cloudy,340,2013-07-23 16:35:00
11:55 AM,74.3,58.5,58,29.88,10.0,NNW,12.7,18.4,N/A,,Overcast,330,2013-07-23 16:55:00
12:15 PM,73.8,58.1,58,29.89,10.0,NNW,11.5,-,N/A,,Mostly Cloudy,340,2013-07-23 17:15:00
12:35 PM,73.8,57.6,57,29.89,10.0,North,10.4,18.4,N/A,,Scattered Clouds,350,2013-07-23 17:35:00
12:55 PM,74.5,57.6,55,29.90,10.0,NNW,8.1,-,N/A,,Scattered Clouds,330,2013-07-23 17:55:00
1:15 PM,74.5,57.2,55,29.89,10.0,NNW,10.4,-,N/A,,Mostly Cloudy,340,2013-07-23 18:15:00
1:35 PM,74.1,56.8,55,29.90,10.0,North,11.5,17.3,N/A,,Mostly Cloudy,350,2013-07-23 18:35:00
1:55 PM,74.1,56.1,53,29.90,10.0,North,9.2,16.1,N/A,,Mostly Cloudy,350,2013-07-23 18:55:00
2:15 PM,74.3,56.8,54,29.90,10.0,North,10.4,-,N/A,,Mostly Cloudy,10,2013-07-23 19:15:00
2:35 PM,75.6,55.9,50,29.90,10.0,North,10.4,16.1,N/A,,Scattered Clouds,360,2013-07-23 19:35:00
3:15 PM,75.6,54.5,48,29.91,10.0,North,11.5,16.1,N/A,,Scattered Clouds,350,2013-07-23 20:15:00
3:35 PM,74.5,54.0,49,29.89,10.0,North,11.5,17.3,N/A,,Scattered Clouds,350,2013-07-23 20:35:00
3:55 PM,76.6,54.0,45,29.89,10.0,North,13.8,18.4,N/A,,Scattered Clouds,360,2013-07-23 20:55:00
4:15 PM,76.8,54.3,46,29.89,10.0,North,12.7,18.4,N/A,,Scattered Clouds,350,2013-07-23 21:15:00
4:35 PM,76.3,54.3,46,29.88,10.0,North,12.7,20.7,N/A,,Scattered Clouds,10,2013-07-23 21:35:00
4:55 PM,75.6,54.0,47,29.89,10.0,North,13.8,18.4,N/A,,Scattered Clouds,350,2013-07-23 21:55:00
5:15 PM,75.9,54.3,47,29.89,10.0,North,12.7,-,N/A,,Clear,360,2013-07-23 22:15:00
5:35 PM,75.4,53.6,47,29.89,10.0,North,13.8,20.7,N/A,,Clear,10,2013-07-23 22:35:00
5:55 PM,75.2,53.1,46,29.89,10.0,North,13.8,-,N/A,,Clear,360,2013-07-23 22:55:00
6:15 PM,74.7,53.1,47,29.89,10.0,North,9.2,17.3,N/A,,Clear,360,2013-07-23 23:15:00
6:35 PM,74.3,52.9,47,29.89,10.0,North,13.8,18.4,N/A,,Clear,360,2013-07-23 23:35:00
6:55 PM,73.6,54.1,50,29.89,10.0,NNE,11.5,-,N/A,,Clear,30,2013-07-23 23:55:00
7:15 PM,72.5,54.0,52,29.89,10.0,NE,9.2,17.3,N/A,,Clear,40,2013-07-24 00:15:00
7:35 PM,71.2,52.7,52,29.90,10.0,NNE,9.2,-,N/A,,Clear,30,2013-07-24 00:35:00
7:55 PM,69.8,54.1,57,29.91,10.0,NNE,6.9,-,N/A,,Clear,30,2013-07-24 00:55:00
8:15 PM,68.4,54.5,61,29.92,10.0,NNE,9.2,-,N/A,,Clear,30,2013-07-24 01:15:00
8:35 PM,67.1,54.7,64,29.92,10.0,NNE,6.9,-,N/A,,Clear,30,2013-07-24 01:35:00
8:55 PM,65.8,55.4,69,29.94,10.0,NNE,6.9,-,N/A,,Clear,20,2013-07-24 01:55:00
9:15 PM,65.7,54.7,68,29.95,10.0,NNE,8.1,-,N/A,,Clear,20,2013-07-24 02:15:00
9:35 PM,64.9,54.0,68,29.97,10.0,NNE,9.2,-,N/A,,Clear,30,2013-07-24 02:35:00
9:55 PM,64.2,53.8,69,29.98,10.0,NNE,8.1,-,N/A,,Clear,30,2013-07-24 02:55:00
10:15 PM,63.3,53.6,71,29.99,10.0,NNE,6.9,-,N/A,,Clear,30,2013-07-24 03:15:00
10:35 PM,62.4,53.6,73,29.99,10.0,NE,5.8,-,N/A,,Clear,40,2013-07-24 03:35:00
10:55 PM,59.9,54.3,82,29.99,10.0,NE,5.8,-,N/A,,Clear,50,2013-07-24 03:55:00
11:15 PM,59.0,54.7,86,30.00,10.0,NE,4.6,-,N/A,,Clear,50,2013-07-24 04:15:00
11:35 PM,58.8,54.5,86,30.00,10.0,ENE,4.6,-,N/A,,Clear,60,2013-07-24 04:35:00
11:55 PM,58.1,54.5,88,30.00,10.0,ENE,5.8,-,N/A,,Clear,70,2013-07-24 04:55:00